CW4340 Weather Reports


time (UTC)temp
C
wind
direction
speed
KPH
gust
KPH
rain 1hr
cm
rain 24hr
cm
rain mn
cm
humidity
%
barometer
mb
20260502164004 20 355 0.0 0.0 0.00 3.58 0.00 69 1020.7
20260502163505 19 3 0.0 0.0 0.00 3.58 0.00 72 1020.7
20260502163005 19 345 0.0 0.0 0.00 3.58 0.00 72 1020.8
20260502162504 19 351 0.0 0.0 0.00 3.58 0.00 73 1020.8
20260502162004 18 303 0.0 0.0 0.00 3.58 0.00 73 1020.8
20260502161504 18 340 0.0 0.0 0.00 3.58 0.00 73 1020.9
20260502161005 18 28 0.0 0.0 0.00 3.58 0.00 73 1020.8
20260502160505 18 18 0.0 0.0 0.00 3.58 0.00 75 1021.0
20260502152005 16 21 0.0 0.0 0.00 3.61 0.00 82 1020.6
20260502151505 16 355 0.0 0.0 0.00 3.61 0.00 84 1020.6
20260502150504 15 2 0.0 0.0 0.00 3.66 0.00 89 1020.6
20260502130504 12 316 0.0 0.0 0.00 4.65 0.00 93 1019.4
20260502123005 11 41 0.0 0.0 0.00 4.75 0.00 93 1019.0
20260502122504 11 288 0.0 0.0 0.00 4.75 0.00 93 1018.8
20260502122005 11 288 0.0 0.0 0.00 4.75 0.00 93 1018.6
20260502121504 11 286 0.0 0.0 0.00 4.75 0.00 93 1018.6
20260502121005 11 286 0.0 0.0 0.00 4.75 0.00 93 1018.4
20260502120504 11 286 0.0 0.0 0.00 4.75 0.00 93 1018.2
20260502115005 11 271 0.0 0.0 0.00 4.78 0.00 93 1018.1
20260502114504 11 271 0.0 0.0 0.00 4.78 0.00 93 1018.1
20260502114005 11 271 0.0 0.0 0.00 4.80 0.00 93 1018.0
20260502113504 11 271 0.0 0.0 0.00 4.83 0.00 93 1017.9
20260502112504 11 271 0.0 0.0 0.00 4.88 0.00 93 1018.0
20260502112005 11 271 0.0 0.0 0.00 4.93 0.00 93 1017.8
20260502111504 11 271 0.0 0.0 0.00 4.95 0.00 93 1017.8
20260502111005 11 271 0.0 0.0 0.00 5.00 0.00 93 1017.8
20260502110504 11 271 0.0 0.0 0.00 5.08 0.00 93 1017.7
20260502105505 11 271 0.0 0.0 0.00 5.21 0.00 93 1017.6
20260502105004 11 271 0.0 0.0 0.00 5.23 0.00 93 1017.4
20260502103505 11 271 0.0 0.0 0.00 5.44 0.00 93 1017.3
20260502103004 11 270 0.0 0.0 0.00 5.49 0.00 93 1017.3
20260502102505 11 270 0.0 0.0 0.00 5.56 0.00 93 1017.3
20260502101504 11 270 0.0 0.0 0.00 5.64 0.00 93 1017.2
20260502101005 11 270 0.0 0.0 0.00 5.69 0.00 93 1017.2
20260502100504 11 270 0.0 0.0 0.00 5.77 0.00 93 1017.1
20260502091504 11 269 0.0 0.0 0.00 6.05 0.00 93 1016.6
20260502091003 11 269 0.0 0.0 0.00 6.05 0.00 93 1016.5
20260502071503 11 255 0.0 0.0 0.00 6.12 0.00 93 1016.1
20260502070503 11 255 0.0 0.0 0.00 6.12 0.00 93 1015.9
20260502070004 11 251 0.0 0.0 0.00 6.12 0.00 93 1016.0
20260502065503 11 251 0.0 0.0 0.00 6.12 0.00 93 1016.0
20260502064004 11 5 0.0 0.0 0.00 6.22 0.00 93 1016.2
20260502063503 11 5 0.0 0.0 0.00 6.25 0.00 93 1016.4
20260502063004 11 1 0.0 0.0 0.00 6.30 0.00 93 1016.5
20260502062504 11 344 0.0 0.0 0.00 6.32 0.00 93 1016.5
20260502062004 11 344 0.0 0.0 0.00 6.32 0.00 93 1016.5
20260502061503 11 341 0.0 0.0 0.00 6.32 0.00 93 1016.5
20260502060004 11 345 0.0 0.0 0.00 6.35 0.00 93 1016.5
20260502055503 11 0 0.0 0.0 0.00 6.35 0.00 93 1016.6
20260502055004 11 43 0.0 0.0 0.00 6.35 0.00 93 1016.6
20260502054503 11 42 0.0 0.0 0.00 6.35 0.00 93 1016.7
20260502054004 11 30 0.0 0.0 0.00 6.35 0.00 93 1016.9
20260502053504 11 30 0.0 0.0 0.00 6.35 0.00 93 1016.8
20260502053004 11 347 0.0 0.0 0.00 6.35 0.00 93 1016.8
20260502052004 12 353 0.0 0.0 0.03 6.35 0.00 93 1017.0
20260502051504 12 341 0.0 0.0 0.03 6.35 0.00 93 1016.8
20260502051003 12 54 0.0 0.0 0.03 6.35 0.00 93 1016.8
20260502050504 12 313 0.0 0.0 0.03 6.35 0.00 93 1016.8
20260502050004 12 10 0.0 0.0 0.05 6.35 0.00 93 1016.7
20260502045503 12 67 0.0 0.0 0.05 6.35 6.35 93 1016.4
20260502045004 12 5 0.0 0.0 0.05 6.38 6.35 93 1016.4
20260502044504 12 5 0.0 0.0 0.08 6.38 6.35 93 1016.5
20260502044003 12 0 0.0 0.0 0.08 6.43 6.35 93 1016.6
20260502043503 12 351 0.0 0.0 0.10 6.48 6.35 93 1016.6
20260502043004 12 331 0.0 0.0 0.10 6.48 6.35 93 1016.4
20260502042504 12 293 0.0 0.0 0.13 6.48 6.35 93 1015.9
20260502042003 12 357 0.0 1.6 0.13 6.45 6.32 93 1015.6
20260502041504 12 26 0.0 0.0 0.15 6.45 6.32 93 1016.0
20260502041004 12 22 0.0 0.0 0.18 6.48 6.32 93 1015.9
20260502040503 12 328 0.0 0.0 0.20 6.58 6.32 93 1015.6
20260502040004 12 329 0.0 0.0 0.20 6.55 6.30 93 1015.7
20260502035504 12 4 0.0 0.0 0.23 6.55 6.30 93 1015.9
20260502035004 12 11 0.0 0.0 0.25 6.55 6.30 93 1016.0
20260502034504 12 333 0.0 0.0 0.25 6.53 6.27 93 1016.1
20260502034003 12 11 0.0 0.0 0.28 6.53 6.27 93 1015.8
20260502033505 12 297 0.0 0.0 0.25 6.50 6.25 93 1015.7
20260502033003 12 354 0.0 0.0 0.28 6.50 6.25 93 1015.2
20260502032504 12 0 0.0 0.0 0.28 6.48 6.22 93 1015.0
20260502032004 12 5 0.0 0.0 0.25 6.45 6.20 93 1015.3
20260502031504 12 0 0.0 0.0 0.23 6.43 6.17 93 1015.3
20260502031003 12 356 0.0 0.0 0.23 6.40 6.15 93 1015.3
20260502025504 12 37 0.0 0.0 0.18 6.32 6.07 93 1015.3
20260502024004 12 355 0.0 0.0 0.10 6.25 5.99 93 1014.6
20260502023504 12 5 0.0 0.0 0.13 6.25 5.99 93 1014.3
20260502023005 12 0 0.0 0.0 0.10 6.22 5.97 93 1014.4
20260502021504 12 23 0.0 0.0 0.15 6.20 5.94 93 1014.4
20260502021004 12 19 0.0 0.0 0.13 6.17 5.92 93 1013.8
20260502020503 12 351 0.0 0.0 0.15 6.17 5.92 93 1013.6
20260502015004 12 18 0.0 0.0 0.18 6.15 5.89 93 1013.7
20260502014004 12 123 0.0 0.0 0.25 6.15 5.89 93 1013.6
20260502013503 12 56 0.0 0.0 0.28 6.12 5.87 93 1013.1
20260502013004 12 291 0.0 0.0 0.30 6.12 5.87 93 1013.0
20260502012504 12 312 0.0 0.0 0.30 6.10 5.84 93 1012.6
20260502012005 12 2 0.0 0.0 0.28 6.07 5.82 93 1012.3
20260502011503 12 13 0.0 0.0 0.25 6.05 5.79 93 1012.6
20260502011005 12 2 0.0 0.0 0.25 6.05 5.79 93 1012.7
20260502010504 12 19 0.0 0.0 0.23 6.02 5.77 93 1012.5
20260502010003 12 334 0.0 0.0 0.20 5.99 5.74 93 1012.5
20260502005504 13 347 0.0 0.0 0.20 5.99 5.74 93 1012.7
20260502005004 13 324 0.0 0.0 0.18 5.97 5.71 93 1013.0
20260502004503 13 324 0.0 0.0 0.15 5.92 5.66 93 1013.2
20260502004004 13 339 0.0 0.0 0.13 5.89 5.64 93 1013.5
20260502003504 13 344 0.0 0.0 0.13 5.84 5.59 93 1013.7
20260502002503 13 334 0.0 0.0 0.18 5.79 5.54 93 1013.2
20260502002003 13 337 0.0 0.0 0.25 5.79 5.54 93 1012.8
20260502001504 13 353 0.0 0.0 0.30 5.79 5.54 92 1012.2
20260502000504 13 344 0.0 0.0 0.38 5.79 5.54 93 1011.9
20260501235504 13 337 0.0 0.0 0.43 5.79 5.54 93 1012.0
20260501235004 13 259 0.0 0.0 0.48 5.79 5.54 93 1011.8
20260501234504 13 330 0.0 0.0 0.48 5.77 5.51 93 1011.8
20260501234004 13 54 0.0 0.0 0.53 5.77 5.51 93 1012.2
20260501233503 13 355 0.0 0.0 0.53 5.71 5.46 93 1012.3
20260501233004 13 49 0.0 0.0 0.56 5.69 5.44 93 1012.7
20260501232504 13 298 0.0 0.0 0.58 5.61 5.36 93 1013.1
20260501232004 14 289 0.0 0.0 0.58 5.54 5.28 93 1012.8
20260501231503 14 19 0.0 0.0 0.61 5.49 5.23 93 1012.8
20260501231004 14 4 0.0 0.0 0.66 5.46 5.21 93 1013.1
20260501230504 14 5 0.0 0.0 0.66 5.41 5.16 93 1013.1
20260501225504 14 267 0.0 0.0 0.71 5.36 5.11 93 1012.8
20260501225004 14 348 0.0 0.0 0.69 5.31 5.05 93 1012.5
20260501224504 14 326 0.0 0.0 0.69 5.28 5.03 93 1012.3
20260501224004 14 326 0.0 0.0 0.69 5.23 4.98 93 1012.2
20260501223503 14 328 0.0 0.0 0.66 5.18 4.93 93 1012.2
20260501222504 14 314 0.0 0.0 0.64 5.03 4.78 93 1012.8
20260501222004 14 314 0.0 0.0 0.64 4.95 4.70 93 1012.7
20260501221503 14 261 0.0 0.0 0.64 4.88 4.62 93 1011.9
20260501215503 14 263 0.0 0.0 0.61 4.65 4.39 93 1012.7
20260501215004 14 299 0.0 0.0 0.61 4.62 4.37 93 1012.2
20260501214504 14 296 0.0 0.0 0.58 4.60 4.34 93 1012.2
20260501214004 14 297 0.0 0.0 0.53 4.55 4.29 93 1011.7
20260501213503 14 325 0.0 0.0 0.53 4.52 4.27 93 1011.8
20260501213005 14 325 0.0 0.0 0.48 4.45 4.19 93 1012.2
20260501212504 14 325 0.0 0.0 0.46 4.39 4.14 93 1012.2
20260501212004 14 325 0.0 0.0 0.41 4.32 4.06 93 1011.9
20260501211504 14 5 0.0 0.0 0.36 4.24 3.99 93 1011.6
20260501211004 14 5 0.0 0.0 0.36 4.17 3.91 93 1011.7
20260501210504 14 5 0.0 0.0 0.36 4.11 3.86 93 1011.5
20260501210004 14 349 0.0 0.0 0.33 4.06 3.81 93 1010.9
20260501205503 14 336 0.0 0.0 0.33 4.04 3.78 93 1010.6
20260501205004 14 299 0.0 0.0 0.30 4.01 3.76 93 1010.3
20260501204504 14 241 0.0 0.0 0.30 4.01 3.76 93 1009.8
20260501203504 14 255 0.0 0.0 0.30 3.99 3.73 93 1009.6
20260501202503 14 14 0.0 0.0 0.25 3.94 3.68 93 1010.4
20260501202004 14 302 0.0 0.0 0.23 3.91 3.66 93 1011.2
20260501201504 14 300 0.0 0.0 0.20 3.89 3.63 93 1011.3
20260501201004 15 221 0.0 0.0 0.13 3.81 3.56 93 1011.1
20260501200503 14 287 0.0 0.0 0.08 3.76 3.51 93 1011.4
20260501200005 14 311 0.0 0.0 0.05 3.73 3.48 93 1011.3
20260501195504 15 136 0.0 0.0 0.03 3.71 3.45 93 1010.6
20260501195003 15 320 0.0 0.0 0.03 3.71 3.45 93 1010.1
20260501194004 15 327 0.0 0.0 0.00 3.68 3.43 93 1010.5
20260501193504 15 352 0.0 0.0 0.00 3.68 3.43 93 1010.6
20260501192504 15 41 0.0 0.0 0.03 3.68 3.43 93 1010.7
20260501192004 15 43 0.0 0.0 0.03 3.68 3.43 93 1010.8
20260501191504 15 326 0.0 1.6 0.03 3.68 3.43 93 1011.0
20260501191004 15 333 0.0 0.0 0.03 3.68 3.43 93 1011.2
20260501190504 15 12 0.0 0.0 0.05 3.68 3.43 93 1011.2
20260501190004 15 331 0.0 0.0 0.08 3.68 3.43 93 1011.1
20260501185504 15 336 0.0 0.0 0.10 3.68 3.43 93 1010.9
20260501184504 15 62 0.0 0.0 0.20 3.68 3.43 93 1010.8
20260501184004 15 337 0.0 0.0 0.23 3.68 3.43 93 1011.0
20260501183504 15 30 0.0 0.0 0.28 3.68 3.43 93 1011.4
20260501182504 15 318 0.0 0.0 0.33 3.66 3.40 93 1011.6
20260501182004 15 61 0.0 0.0 0.36 3.66 3.40 93 1011.6
20260501181504 15 327 0.0 0.0 0.38 3.66 3.40 93 1011.5
20260501181004 15 311 0.0 0.0 0.41 3.66 3.40 93 1011.0
20260501180503 15 333 0.0 0.0 0.43 3.63 3.38 93 1011.4
20260501180004 15 3 0.0 0.0 0.43 3.61 3.35 93 1011.2
20260501175504 15 351 0.0 0.0 0.43 3.58 3.33 93 1011.2
20260501175004 15 349 0.0 0.0 0.43 3.53 3.28 93 1011.5
20260501174503 15 321 0.0 0.0 0.43 3.48 3.23 93 1012.3
20260501174004 15 9 0.0 0.0 0.43 3.45 3.20 93 1012.3
20260501173504 16 48 0.0 0.0 0.38 3.40 3.15 93 1012.1
20260501172504 16 125 0.0 0.0 0.30 3.33 3.07 93 1013.3